Guthrie, OK

11:46 PM CST on November 20, 2019 (GMT -0600)
Guthrie Municipal

Weather History for KGOK - October, 2019

Change the Weather History Date:

Wednesday, October 16, 2019

  Actual Average Record
Temperature  
Mean Temperature 52 °F -  
Max Temperature 66 °F 75 °F 90 °F (1948)
Min Temperature 39 °F 50 °F 27 °F (1966)
Degree Days  
Heating Degree Days 12    
Growing Degree Days 2 (Base 50)    
Moisture  
Dew Point 36 °F    
Average Humidity 58    
Maximum Humidity 79    
Minimum Humidity 30    
Precipitation  
Precipitation 0.00 in - - ()
Sea Level Pressure  
Sea Level Pressure 30.19 in    
Wind  
Wind Speed 4 mph (NE)    
Max Wind Speed 7 mph    
Max Gust Speed -    
Visibility 10 miles    
Events      
Averages and records for this station are not official NWS values.
T = Trace of Precipitation, MM = Missing Value Source: NWS Daily Summary

Daily Weather History Graph

Daily Weather History Graph

Search for Another Location

Airport or City:

Astronomy

Oct. 16, 2019 Rise Set
Actual Time 7:37 AM CDT 6:52 PM CDT
Civil Twilight 7:11 AM CDT 7:18 PM CDT
Nautical Twilight 6:41 AM CDT 7:48 PM CDT
Astronomical Twilight 6:11 AM CDT 8:17 PM CDT
Moon 8:51 PM CDT (10/16) 10:05 AM CDT (10/16)
Length of Visible Light 12h 07m
Length of Day
11h 15m
Waning Gibbous, 92% of the Moon is Illuminated
Oct 16
Waning Gibbous
Oct 21
Last Quarter
Oct 27
New
Nov 4
First Quarter
Nov 12
Full

Hourly Weather History & Observations

Time (CDT) Temp. Windchill Dew Point Humidity Pressure Visibility Wind Dir Wind Speed Gust Speed Precip Events Conditions
12:53 AM 48.9 °F - 37.0 °F 64% 30.19 in 10.0 mi North 3.5 mph - N/A   Clear
1:53 AM 46.9 °F - 37.0 °F 68% 30.20 in 10.0 mi North 3.5 mph - N/A   Clear
2:53 AM 46.0 °F 43.9 °F 36.0 °F 68% 30.21 in 10.0 mi North 4.6 mph - N/A   Clear
3:53 AM 44.1 °F 42.5 °F 35.1 °F 71% 30.22 in 10.0 mi NNE 3.5 mph - N/A   Clear
5:53 AM 41.0 °F 39.0 °F 34.0 °F 76% 30.23 in 10.0 mi NNE 3.5 mph - N/A   Clear
6:53 AM 41.0 °F 38.0 °F 34.0 °F 76% 30.24 in 10.0 mi North 4.6 mph - N/A   Clear
7:53 AM 39.9 °F 37.8 °F 34.0 °F 79% 30.25 in 10.0 mi North 3.5 mph - N/A   Clear
8:53 AM 45.0 °F 42.6 °F 35.1 °F 68% 30.26 in 10.0 mi North 4.6 mph - N/A   Clear
9:53 AM 48.9 °F - 35.1 °F 59% 30.29 in 10.0 mi North 6.9 mph - N/A   Clear
10:53 AM 53.1 °F - 35.1 °F 50% 30.28 in 10.0 mi Variable 6.9 mph - N/A   Clear
11:53 AM 55.9 °F - 35.1 °F 45% 30.27 in 10.0 mi Variable 5.8 mph - N/A   Clear
12:53 PM 59.0 °F - 35.1 °F 41% 30.26 in 10.0 mi Variable 4.6 mph - N/A   Clear
1:53 PM 61.0 °F - 35.1 °F 38% 30.23 in 10.0 mi Variable 4.6 mph - N/A   Clear
2:53 PM 63.0 °F - 35.1 °F 35% 30.20 in 10.0 mi Variable 4.6 mph - N/A   Clear
3:53 PM 64.0 °F - 35.1 °F 34% 30.17 in 10.0 mi Variable 4.6 mph - N/A   Clear
4:53 PM 66.0 °F - 34.0 °F 30% 30.15 in 10.0 mi Variable 4.6 mph - N/A   Clear
5:53 PM 64.0 °F - 34.0 °F 33% 30.14 in 10.0 mi Calm Calm - N/A   Clear
6:53 PM 55.9 °F - 37.9 °F 51% 30.14 in 9.0 mi East 3.5 mph - N/A   Clear
7:53 PM 50.0 °F - 39.9 °F 68% 30.13 in 10.0 mi SE 3.5 mph - N/A   Clear
8:53 PM 48.9 °F - 37.9 °F 66% 30.12 in 10.0 mi Calm Calm - N/A   Clear
9:53 PM 46.0 °F - 37.9 °F 73% 30.11 in 10.0 mi Calm Calm - N/A   Clear
10:53 PM 45.0 °F 41.8 °F 37.0 °F 74% 30.10 in 10.0 mi SE 5.8 mph - N/A   Clear
11:53 PM 48.9 °F - 37.0 °F 64% 30.09 in 10.0 mi SE 6.9 mph - N/A   Clear